DW3735 Weather Reports


Display with metric or nautical units.
time (UTC)temp
F
wind
direction
speed
MPH
gust
MPH
rain 1hr
in
rain 24hr
in
rain mn
in
humidity
%
barometer
mb
20260902073516 66 0.0 0.0 0.00 0.00 0.00 64 1016.3
20260902072516 67 0.0 0.0 0.00 0.00 0.00 65 1016.5
20260902071536 67 158 1.0 3.0 0.00 0.00 0.00 62 1016.3
20260902070516 67 0.0 0.0 0.00 0.00 0.00 65 1016.2
20260902065517 67 0.0 0.0 0.00 0.00 0.00 63 1016.3
20260902064516 67 0.0 1.0 0.00 0.00 0.00 63 1016.4
20260902063516 67 0.0 3.0 0.00 0.00 0.00 63 1016.4
20260902062537 67 158 1.0 3.0 0.00 0.00 0.00 61 1016.5
20260902061557 67 158 2.0 4.0 0.00 0.00 0.00 62 1016.6
20260902060516 67 158 2.0 3.0 0.00 0.00 0.00 63 1016.6
20260902055516 67 158 2.0 4.0 0.00 0.00 0.00 62 1016.6
20260902054516 67 158 1.0 3.0 0.00 0.00 0.00 63 1016.7
20260902053537 67 0.0 3.0 0.00 0.00 0.00 64 1016.7
20260902052516 68 0.0 2.0 0.00 0.00 0.00 62 1016.8
20260902051516 68 158 1.0 3.0 0.00 0.00 0.00 62 1016.7
20260902050516 68 158 1.0 3.0 0.00 0.00 0.00 61 1016.6
20260902045516 68 158 3.0 6.0 0.00 0.00 0.00 61 1016.6
20260902044517 68 158 3.0 5.0 0.00 0.00 0.00 60 1016.7
20260902043516 68 158 4.0 8.0 0.00 0.00 0.00 60 1016.6
20260902042516 68 158 4.0 7.0 0.00 0.00 0.00 61 1016.8
20260902041516 67 158 3.0 5.0 0.00 0.00 0.00 61 1016.6
20260902040516 67 135 3.0 5.0 0.00 0.00 0.00 61 1016.6
20260902035517 67 135 1.0 3.0 0.00 0.00 0.00 64 1016.3
20260902034516 68 135 2.0 5.0 0.00 0.00 0.00 63 1016.4
20260902033536 68 0.0 3.0 0.00 0.00 0.00 63 1016.4
20260902032516 68 135 1.0 3.0 0.00 0.00 0.00 63 1016.3
20260902031516 67 0.0 1.0 0.00 0.00 0.00 63 1016.4
20260902030516 67 0.0 2.0 0.00 0.00 0.00 65 1016.3
20260902025516 67 135 1.0 2.0 0.00 0.00 0.00 66 1016.5
20260902024517 66 0.0 1.0 0.00 0.00 0.00 75 1016.6
20260902023516 66 0.0 0.0 0.00 0.00 0.00 76 1016.6
20260902022516 66 0.0 0.0 0.00 0.00 0.00 74 1016.7
20260902021516 67 0.0 0.0 0.00 0.00 0.00 74 1016.7
20260902020516 67 0.0 0.0 0.00 0.00 0.00 74 1016.6
20260902015516 67 0.0 0.0 0.00 0.00 0.00 73 1016.5
20260902014517 68 0.0 1.0 0.00 0.00 0.00 73 1016.5
20260902013517 68 0.0 0.0 0.00 0.00 0.00 71 1016.5
20260902012517 68 0.0 0.0 0.00 0.00 0.00 71 1016.5
20260902011516 69 0.0 0.0 0.00 0.00 0.00 70 1016.3
20260902010516 69 0.0 0.0 0.00 0.00 0.00 68 1016.3
20260902005516 69 0.0 0.0 0.00 0.00 0.00 68 1016.1
20260902004516 69 0.0 0.0 0.00 0.00 0.00 67 1016.0
20260902003516 70 0.0 0.0 0.00 0.00 0.00 67 1015.8
20260902002516 70 0.0 1.0 0.00 0.00 0.00 67 1015.6
20260902001537 70 0.0 0.0 0.00 0.00 0.00 67 1015.5
20260902000517 70 0.0 0.0 0.00 0.00 0.00 66 1015.3
20260901235516 70 135 1.0 2.0 0.00 0.00 0.00 65 1015.3
20260901234556 71 0.0 2.0 0.00 0.00 0.00 64 1015.4
20260901233537 71 135 1.0 3.0 0.00 0.00 0.00 64 1015.5
20260901232516 72 135 1.0 3.0 0.00 0.00 0.00 64 1015.6
20260901231516 72 0.0 0.0 0.00 0.00 0.00 64 1015.7
20260901230516 73 135 1.0 4.0 0.00 0.00 0.00 62 1015.8
20260901225536 73 0.0 1.0 0.00 0.00 0.00 63 1015.9
20260901224537 73 135 2.0 3.0 0.00 0.00 0.00 61 1016.1
20260901223516 73 90 1.0 2.0 0.00 0.00 0.00 68 1016.3
20260901222517 73 0.0 1.0 0.00 0.00 0.00 66 1016.6
20260901221516 73 0.0 0.0 0.00 0.00 0.00 68 1016.6
20260901220516 74 0.0 1.0 0.00 0.00 0.00 69 1016.6
20260901215516 74 0.0 1.0 0.00 0.00 0.00 62 1016.7
20260901214516 74 0.0 1.0 0.00 0.00 0.00 62 1016.6
20260901213516 75 0.0 1.0 0.00 0.00 0.00 62 1016.6
20260901212516 75 0.0 2.0 0.00 0.00 0.00 56 1016.3
20260901211516 75 0.0 1.0 0.00 0.00 0.00 59 1016.3
20260901210516 75 0.0 2.0 0.00 0.00 0.00 57 1016.2
20260901205517 75 0.0 2.0 0.00 0.00 0.00 57 1016.2
20260901204516 75 90 1.0 3.0 0.00 0.00 0.00 54 1016.1
20260901203516 75 90 1.0 3.0 0.00 0.00 0.00 54 1015.8
20260901202517 75 90 1.0 2.0 0.00 0.00 0.00 53 1015.8
20260901201517 75 90 1.0 2.0 0.00 0.00 0.00 54 1015.7
20260901200516 76 135 3.0 7.0 0.00 0.00 0.00 52 1015.6
20260901195537 76 135 2.0 4.0 0.00 0.00 0.00 55 1015.6
20260901194517 76 135 2.0 4.0 0.00 0.00 0.00 54 1015.7
20260901193517 75 68 3.0 5.0 0.00 0.00 0.00 54 1015.7
20260901192516 76 68 3.0 7.0 0.00 0.00 0.00 53 1015.6
20260901191516 75 90 3.0 7.0 0.00 0.00 0.00 56 1015.6
20260901190516 75 135 3.0 7.0 0.00 0.00 0.00 55 1015.5
20260901185517 76 135 3.0 7.0 0.00 0.00 0.00 55 1015.7
20260901184517 75 113 2.0 6.0 0.00 0.00 0.00 55 1016.0
20260901183516 75 68 2.0 4.0 0.00 0.00 0.00 56 1015.9
20260901182517 75 135 2.0 9.0 0.00 0.00 0.00 57 1015.9
20260901181516 75 135 2.0 5.0 0.00 0.00 0.00 56 1015.8
20260901180516 75 68 3.0 7.0 0.00 0.00 0.00 57 1015.8
20260901175516 75 158 3.0 8.0 0.00 0.00 0.00 56 1015.8
20260901174517 74 68 3.0 5.0 0.00 0.00 0.00 61 1015.7
20260901173517 74 68 4.0 7.0 0.00 0.00 0.00 60 1015.7
20260901172516 74 90 2.0 7.0 0.00 0.00 0.00 61 1015.9
20260901171516 74 90 3.0 5.0 0.00 0.00 0.00 60 1016.0
20260901170516 73 90 3.0 7.0 0.00 0.00 0.00 62 1016.2
20260901165516 73 90 4.0 7.0 0.00 0.00 0.00 62 1016.3
20260901164516 73 90 3.0 10.0 0.00 0.00 0.00 64 1016.5
20260901163516 72 90 2.0 4.0 0.00 0.00 0.00 65 1016.4
20260901162516 71 90 1.0 3.0 0.00 0.00 0.00 66 1016.5
20260901161557 71 90 2.0 4.0 0.00 0.00 0.00 66 1016.4
20260901160517 70 90 3.0 5.0 0.00 0.00 0.00 67 1016.5
20260901155537 70 158 2.0 5.0 0.00 0.00 0.00 68 1016.6
20260901154516 70 158 2.0 5.0 0.00 0.00 0.00 70 1016.8
20260901153517 69 158 4.0 6.0 0.00 0.00 0.00 68 1017.0
20260901152516 69 135 2.0 4.0 0.00 0.00 0.00 68 1017.0
20260901151517 69 113 2.0 3.0 0.00 0.00 0.00 69 1017.0
20260901150517 69 158 2.0 5.0 0.00 0.00 0.00 68 1017.1
20260901145516 68 158 3.0 7.0 0.00 0.00 0.00 69 1017.1
20260901144516 68 158 2.0 5.0 0.00 0.00 0.00 70 1017.3
20260901143516 68 158 2.0 7.0 0.00 0.00 0.00 70 1017.4
20260901142516 68 158 2.0 5.0 0.00 0.00 0.00 69 1017.4
20260901141517 68 158 2.0 6.0 0.00 0.00 0.00 69 1017.3
20260901140517 67 158 3.0 6.0 0.00 0.00 0.00 70 1017.4
20260901135516 67 158 3.0 7.0 0.00 0.00 0.00 69 1017.3
20260901134516 67 158 3.0 4.0 0.00 0.00 0.00 70 1017.4
20260901133517 67 135 3.0 5.0 0.00 0.00 0.00 69 1017.5
20260901132537 67 135 1.0 4.0 0.00 0.00 0.00 71 1017.6
20260901131517 67 158 2.0 5.0 0.00 0.00 0.00 70 1017.4
20260901130517 67 158 1.0 6.0 0.00 0.00 0.00 71 1017.4
20260901125517 67 158 2.0 8.0 0.00 0.00 0.00 72 1017.3
20260901124516 67 158 2.0 6.0 0.00 0.00 0.00 72 1017.1
20260901123516 67 158 2.0 6.0 0.00 0.00 0.00 71 1017.0
20260901122516 67 158 2.0 5.0 0.00 0.00 0.00 72 1017.0
20260901121537 67 158 3.0 7.0 0.00 0.00 0.00 73 1016.9
20260901120516 66 135 1.0 5.0 0.00 0.00 0.00 75 1016.8
20260901115516 66 135 1.0 3.0 0.00 0.00 0.00 76 1016.8
20260901114516 65 0.0 4.0 0.00 0.00 0.00 77 1016.7
20260901113516 64 0.0 0.0 0.00 0.00 0.00 80 1016.6
20260901112516 63 0.0 0.0 0.00 0.00 0.00 86 1016.6
20260901111516 63 0.0 0.0 0.00 0.01 0.00 86 1016.4
20260901110537 63 0.0 0.0 0.00 0.01 0.00 86 1016.4
20260901105516 62 0.0 0.0 0.00 0.01 0.00 85 1016.4
20260901104516 62 0.0 0.0 0.00 0.01 0.00 85 1016.4
20260901103518 62 0.0 0.0 0.00 0.01 0.00 87 1016.4
20260901102516 62 0.0 0.0 0.00 0.01 0.00 87 1016.4
20260901101516 62 0.0 0.0 0.00 0.01 0.00 91 1016.3
20260901100516 62 0.0 0.0 0.00 0.01 0.00 95 1016.3
20260901095517 62 0.0 0.0 0.00 0.01 0.00 95 1016.2
20260901094516 62 0.0 0.0 0.00 0.01 0.00 95 1016.2
20260901093516 62 0.0 0.0 0.00 0.01 0.00 95 1016.0
20260901092516 62 0.0 0.0 0.00 0.01 0.00 95 1016.1
20260901091516 62 0.0 0.0 0.00 0.01 0.00 96 1016.3
20260901090516 62 0.0 0.0 0.00 0.01 0.00 95 1016.5
20260901085516 62 0.0 0.0 0.00 0.01 0.00 95 1016.5
20260901084517 62 0.0 0.0 0.00 0.01 0.00 95 1016.5
20260901083516 62 0.0 0.0 0.00 0.01 0.00 95 1016.3
20260901082536 62 0.0 0.0 0.00 0.01 0.00 94 1016.4
20260901081517 62 0.0 0.0 0.00 0.01 0.00 94 1016.4
20260901080516 62 0.0 0.0 0.00 0.01 0.00 94 1016.3
20260901075521 62 0.0 0.0 0.00 0.01 0.00 94 1016.2
20260901074516 62 0.0 0.0 0.00 0.01 0.00 94 1016.4